Погода в Садовом

Россия / Калининградская область     54°43′04″N   22°26′40″E
темп.,
°C
ветер,
м/с
пор.,
м/с
влажн.,
%
обл.,
%
осадки,
мм/ч
давл.,
гПа
погр.,
м
11 мая, вт
вт1123:00+14юв513835 0.0 1017334
02:00+14юв61581100 0.0 1017408
05:00+13юв51383100 0.0 1017328
08:00+16ююв6157574 0.0 1018563
11:00+20юв7116015 0.0 1017987
14:00+22юв7105916 0.0 10171266
17:00+21юв811655 0.0 10161076
20:00+16юв615685 0.0 1016584
12 мая, ср
ср1223:00+13юв515765 0.0 1016443
02:00+11юв5147510 0.0 1016375
05:00+10вюв514825 0.0 1016337
08:00+15юв614756 0.0 1015524
11:00+20юв812655 0.0 10151177
14:00+20юв71057100 0.0 10151375
17:00+18вюв69590 0.0 10141361
20:00+13вюв411740 0.0 1014339
13 мая, чт
чт1323:00+10вюв38850 0.0 1013150
02:00+9вюв338710 0.0 101253
05:00+8в118915 0.0 101010
08:00+11всв2380100 0.0 1009161
11:00+10зюз1192100 1.8 1007162
14:00+10ю1195100 2.4 1006147
17:00+10юв2397100 1.9 1005224
20:00+9юв2597100 4.8 1004224
14 мая, пт
пт1423:00+9в4898100 3.9 1004333
02:00+9вюв499598 4.4 1003441
05:00+9в3798100 0.8 1002416
08:00+10в3696100 1.6 1002411
11:00+11вюв2291100 0.1 1002326
14:00+15ююв347899 0.5 1002893
17:00+13ю359096 0.3 1003329
20:00+12юв22915 0.4 100322
15 мая, сб
сб1523:00+10ююз349543 0.0 100361
02:00+9ююз339572 0.0 100456
05:00+8юз369729 0.0 1004116
08:00+12зюз458878 0.0 1005476
11:00+13з5680100 0.0 1006854
14:00+15з566689 0.1 10071309
17:00+15зюз35665 0.0 1007943
20:00+12ссз018321 0.0 100710